Total_Precipitation_Accumulation
1.11 1.15 1.12 1.18 1.29 1.54 1.75 1.68 1.49 1.48 1.50 1.47 1.42 1.49 1.63 1.74 1.85 1.99 2.05 2.06 2.09 2.23 2.16 2.12 2.20 2.31 2.57 2.53 2.58 2.57 2.47 2.39 2.35 2.12 1.76 1.75 1.99 2.09 2.00 1.80 1.64 1.63 1.46
0.93 0.98 1.04 1.05 1.15 1.26 1.37 1.38 1.31 1.22 1.19 1.24 1.30 1.31 1.38 1.54 1.66 1.70 1.72 1.75 1.82 1.93 2.00 1.95 1.97 2.05 2.17 2.39 2.50 2.50 2.51 2.45 2.44 2.38 2.04 1.85 1.80 1.93 2.01 1.98 1.73 1.59 1.50
0.88 0.95 1.03 1.01 1.01 1.02 1.05 0.98 1.01 1.01 1.06 1.11 1.23 1.28 1.34 1.42 1.57 1.58 1.57 1.53 1.57 1.64 1.77 1.84 1.88 1.91 1.94 2.07 2.05 2.14 2.28 2.44 2.54 2.45 2.29 2.07 1.90 1.88 1.96 1.93 1.86 1.89 1.64
0.97 1.04 1.11 1.10 1.08 1.07 1.04 1.00 1.00 1.00 1.03 1.14 1.33 1.39 1.40 1.42 1.41 1.46 1.52 1.49 1.39 1.35 1.41 1.45 1.57 1.70 1.73 1.92 1.89 1.89 2.06 2.30 2.58 2.59 2.46 2.23 2.08 2.02 1.99 1.95 2.00 1.99 1.89
0.86 0.98 1.03 1.10 1.14 1.07 0.97 0.92 0.96 0.93 0.91 1.05 1.21 1.36 1.40 1.39 1.36 1.43 1.51 1.53 1.45 1.30 1.24 1.26 1.30 1.43 1.70 1.81 1.77 1.98 2.14 2.19 2.34 2.48 2.47 2.40 2.24 2.06 1.93 1.84 1.92 1.97 2.00
0.77 0.87 1.06 1.13 1.06 0.98 0.88 0.86 0.87 0.84 0.82 0.91 1.05 1.22 1.33 1.30 1.70 1.70 1.51 1.49 1.45 1.31 1.20 1.18 1.15 1.14 1.36 1.66 1.81 1.94 2.08 2.17 2.22 2.26 2.30 2.24 2.18 2.11 2.16 2.11 2.00 1.93 1.90
0.70 0.85 1.05 1.06 0.97 0.91 0.91 0.93 0.88 0.84 0.85 0.90 0.94 0.96 1.05 1.36 1.42 1.19 1.22 1.25 1.35 1.26 1.13 1.06 0.97 0.96 1.11 1.20 1.37 1.49 1.69 2.00 2.21 2.25 2.14 2.01 2.10 2.08 2.12 2.16 2.06 1.97 1.87
0.60 0.71 0.89 0.92 0.89 0.92 0.92 0.87 0.80 0.74 0.72 0.76 0.80 0.85 0.92 1.06 1.07 1.01 1.10 1.03 1.16 1.16 1.07 1.02 1.00 0.99 1.05 1.10 1.23 1.37 1.39 1.48 1.72 1.78 1.80 1.82 1.89 2.06 2.13 2.16 2.22 2.15 2.11
0.47 0.58 0.70 0.72 0.77 0.78 0.76 0.77 0.72 0.67 0.66 0.67 0.70 0.79 0.89 0.88 0.91 0.90 0.96 1.06 1.20 1.16 1.04 1.03 1.01 0.98 1.18 1.26 1.23 1.31 1.40 1.38 1.51 1.68 1.89 1.87 1.78 1.80 1.92 1.99 2.12 2.16 2.13
0.38 0.49 0.59 0.63 0.65 0.65 0.70 0.73 0.72 0.68 0.66 0.66 0.67 0.69 0.76 0.81 0.95 0.82 0.91 1.08 1.20 1.23 1.19 1.09 1.18 1.16 1.27 1.25 1.19 1.33 1.40 1.25 1.18 1.28 1.45 1.49 1.41 1.43 1.63 1.66 1.87 2.03 1.94
0.29 0.39 0.47 0.53 0.60 0.68 0.76 0.77 0.79 0.75 0.70 0.68 0.73 0.74 0.71 0.79 0.94 0.92 0.95 1.00 1.20 1.26 1.28 1.21 1.07 1.13 1.12 1.18 1.24 1.31 1.51 1.36 1.22 1.28 1.40 1.38 1.27 1.25 1.33 1.41 1.55 1.82 1.89
0.21 0.28 0.40 0.50 0.57 0.67 0.79 0.84 0.81 0.79 0.78 0.77 0.77 0.78 0.75 0.76 0.83 0.88 0.92 0.98 1.09 1.12 1.22 1.19 1.11 1.17 1.03 1.01 1.04 1.17 1.46 1.39 1.24 1.27 1.32 1.33 1.27 1.18 1.23 1.26 1.35 1.47 1.60
0.18 0.22 0.30 0.36 0.40 0.50 0.60 0.72 0.77 0.76 0.74 0.74 0.80 0.87 0.88 0.81 0.88 1.01 0.88 0.87 0.94 0.96 0.99 1.10 1.06 1.04 0.95 0.88 0.95 1.07 1.19 1.32 1.33 1.27 1.20 1.18 1.18 1.17 1.22 1.20 1.22 1.30 1.34
0.19 0.22 0.24 0.27 0.28 0.33 0.46 0.54 0.59 0.64 0.68 0.74 0.81 0.91 1.01 0.97 0.88 0.86 0.82 0.82 0.86 0.81 0.75 0.76 0.78 0.81 0.81 0.80 0.85 0.90 1.02 1.21 1.34 1.27 1.15 1.15 1.17 1.19 1.22 1.16 1.17 1.24 1.28
0.18 0.20 0.21 0.23 0.26 0.29 0.35 0.46 0.52 0.58 0.62 0.66 0.75 0.89 0.96 0.97 0.98 1.06 1.05 0.99 0.94 0.92 0.87 0.77 0.71 0.74 0.81 0.87 0.87 0.86 0.93 1.07 1.18 1.17 1.12 1.09 1.13 1.17 1.17 1.11 1.09 1.14 1.19
0.23 0.21 0.21 0.22 0.25 0.28 0.31 0.38 0.42 0.45 0.47 0.49 0.54 0.61 0.69 0.76 0.81 0.82 0.86 0.89 0.87 0.85 0.94 0.95 0.91 0.94 0.93 0.90 0.91 0.86 0.83 0.88 1.01 1.09 1.10 1.05 1.02 1.07 1.13 1.12 1.11 1.13 1.14
0.32 0.29 0.27 0.25 0.28 0.32 0.32 0.33 0.38 0.40 0.42 0.43 0.45 0.52 0.60 0.65 0.64 0.65 0.70 0.76 0.80 0.81 0.92 0.91 0.85 0.79 0.78 0.75 0.77 0.77 0.77 0.76 0.81 0.92 0.98 1.01 0.98 1.01 1.10 1.14 1.14 1.18 1.19
0.22 0.25 0.28 0.31 0.29 0.31 0.37 0.44 0.49 0.54 0.49 0.42 0.42 0.48 0.51 0.55 0.56 0.59 0.64 0.67 0.63 0.61 0.65 0.73 0.70 0.65 0.62 0.63 0.63 0.62 0.64 0.67 0.70 0.75 0.84 0.89 0.95 0.99 1.05 1.11 1.14 1.13 1.15
0.21 0.24 0.32 0.36 0.34 0.33 0.41 0.52 0.58 0.59 0.56 0.47 0.38 0.36 0.40 0.42 0.48 0.53 0.57 0.57 0.56 0.49 0.49 0.56 0.60 0.59 0.55 0.51 0.49 0.49 0.50 0.52 0.56 0.63 0.71 0.77 0.83 0.88 0.93 0.99 1.04 1.10 1.12
0.27 0.32 0.40 0.44 0.40 0.41 0.45 0.45 0.44 0.47 0.46 0.42 0.39 0.38 0.39 0.38 0.39 0.42 0.45 0.47 0.50 0.48 0.49 0.53 0.54 0.53 0.50 0.48 0.46 0.45 0.46 0.50 0.52 0.57 0.64 0.74 0.78 0.79 0.79 0.84 0.94 1.00 0.99
0.36 0.36 0.37 0.45 0.45 0.43 0.43 0.40 0.42 0.44 0.41 0.40 0.40 0.39 0.40 0.38 0.38 0.39 0.39 0.41 0.42 0.46 0.48 0.48 0.49 0.54 0.52 0.49 0.48 0.49 0.49 0.50 0.50 0.55 0.59 0.63 0.67 0.71 0.73 0.76 0.79 0.85 0.91
0.36 0.36 0.35 0.43 0.46 0.42 0.39 0.41 0.45 0.47 0.45 0.41 0.40 0.39 0.40 0.37 0.37 0.39 0.40 0.43 0.44 0.46 0.46 0.45 0.48 0.51 0.54 0.52 0.50 0.52 0.54 0.54 0.53 0.55 0.59 0.60 0.62 0.64 0.67 0.69 0.71 0.75 0.79
0.38 0.37 0.37 0.40 0.41 0.39 0.38 0.40 0.46 0.49 0.47 0.43 0.41 0.40 0.38 0.36 0.36 0.38 0.43 0.50 0.54 0.52 0.48 0.45 0.47 0.53 0.55 0.56 0.54 0.55 0.55 0.54 0.54 0.55 0.60 0.63 0.65 0.68 0.70 0.71 0.72 0.77 0.82
0.41 0.42 0.44 0.45 0.45 0.47 0.50 0.48 0.47 0.48 0.49 0.47 0.45 0.44 0.41 0.37 0.37 0.38 0.44 0.50 0.54 0.53 0.51 0.48 0.47 0.51 0.56 0.59 0.60 0.58 0.56 0.55 0.53 0.53 0.58 0.62 0.64 0.66 0.68 0.71 0.75 0.77 0.83
0.42 0.44 0.46 0.49 0.49 0.49 0.53 0.51 0.48 0.48 0.51 0.54 0.54 0.49 0.46 0.43 0.41 0.40 0.43 0.48 0.50 0.48 0.49 0.50 0.53 0.56 0.57 0.56 0.56 0.59 0.70 0.69 0.61 0.58 0.58 0.62 0.66 0.68 0.71 0.75 0.79 0.82 0.87
0.43 0.45 0.50 0.55 0.55 0.54 0.55 0.56 0.54 0.52 0.54 0.56 0.59 0.61 0.57 0.52 0.48 0.47 0.48 0.51 0.51 0.50 0.50 0.51 0.52 0.54 0.56 0.56 0.54 0.57 0.63 0.61 0.60 0.61 0.59 0.61 0.67 0.72 0.78 0.81 0.84 0.90 0.96